CAPE
735 773 670 429 184 53 59 57 73 127 201 181 188 212 260 214 259 384 562 671 420 286 249 280 356 308 318 474 562 735 785 1336 1413 1236 1150 1103 1042 1072 1003 1008 1024 1173 1352 1393 1207 724 368 193 326 266 273 212 331 533 712 1006 1027 1113 756 453 619 702 796
631 610 333 138 148 115 154 107 27 4 83 319 321 354 209 120 118 197 277 323 383 271 126 172 207 244 420 508 679 624 1082 1361 1618 1575 1446 1316 1314 1406 1117 1161 996 1115 1148 1328 1264 1230 740 617 640 642 358 186 204 141 216 314 551 503 440 456 532 575 632
666 377 175 183 201 202 183 146 75 51 23 211 390 363 170 33 87 101 95 182 293 106 93 6 60 152 212 571 1144 1306 1299 1324 1338 1388 1311 1400 1384 1330 1232 1214 1170 1084 1013 912 1102 1110 1116 855 670 548 554 435 197 13 65 282 256 176 54 57 4 28 103
795 486 310 294 222 178 128 97 50 42 123 225 216 279 232 42 24 76 202 113 96 16 0 0 46 36 132 194 240 260 516 914 1050 1121 1094 1030 988 931 1125 1129 1044 1005 977 1060 1040 910 726 568 417 161 46 31 10 0 0 0 0 0 0 23 0 0 0
857 578 383 317 222 152 120 61 0 32 101 200 170 68 64 16 0 19 23 6 14 2 0 26 72 8 25 18 22 24 58 202 321 354 418 810 1046 1087 1066 1001 902 865 850 902 727 638 537 323 344 121 2 0 0 1 0 0 0 0 0 0 0 0 0
766 418 341 251 135 60 34 8 12 12 21 49 22 0 53 5 2 27 46 5 0 0 22 18 4 4 0 0 0 0 0 0 22 69 64 243 113 89 148 129 51 124 124 160 484 682 541 437 342 144 10 6 4 2 0 0 0 0 0 0 0 0 0
874 464 208 153 76 8 0 8 0 0 3 6 12 8 0 0 0 0 0 0 0 0 0 0 1 0 1 0 0 0 0 0 0 0 0 2 4 6 4 0 0 0 0 0 0 31 321 235 169 187 136 42 14 0 0 0 0 0 0 0 0 0 0
860 450 156 104 59 6 0 0 0 0 2 1 3 9 0 0 0 0 0 0 0 0 0 0 0 0 0 0 0 0 0 0 0 0 0 0 0 0 0 0 0 0 0 0 0 0 0 7 33 20 12 4 2 0 0 0 0 0 0 0 0 0 0
581 385 156 91 75 33 0 0 0 0 2 6 6 13 2 0 0 0 0 0 0 0 0 0 0 0 0 0 0 0 0 0 0 0 0 0 0 0 0 0 0 0 0 0 0 0 0 0 5 9 0 0 0 0 0 0 0 0 0 0 0 0 0
830 447 171 244 172 146 10 1 1 0 7 12 33 33 4 0 0 0 0 0 0 0 0 0 0 0 0 0 0 0 0 0 0 0 0 0 0 0 0 0 0 0 0 0 0 0 0 0 0 0 1 0 0 0 0 0 0 0 0 0 0 0 0
890 567 333 459 372 290 149 25 35 8 15 12 51 37 21 1 0 0 0 0 0 0 0 0 0 0 0 0 0 0 0 0 0 0 0 0 0 0 0 0 0 0 0 0 0 0 0 0 0 0 0 1 0 0 0 0 0 0 0 0 0 0 0
1001 766 331 326 268 440 358 480 363 136 50 26 4 38 23 2 2 2 0 0 0 0 0 0 0 0 0 0 0 0 0 0 0 0 0 0 0 0 0 0 0 0 0 0 0 0 0 0 0 0 0 0 0 4 0 0 0 0 0 0 0 0 0
1115 743 323 25 36 462 202 18 75 352 216 18 11 14 4 2 3 12 1 0 2 0 0 0 0 0 0 0 0 0 0 0 0 0 0 0 0 0 0 0 0 0 0 0 0 0 0 0 0 0 0 0 0 0 0 0 0 0 0 0 0 0 0
1202 900 488 470 247 229 2 15 62 216 221 126 53 14 2 2 0 0 0 0 0 7 1 1 7 3 0 0 0 0 0 0 0 0 0 0 0 0 0 0 0 0 0 0 0 0 0 0 0 0 0 0 0 0 0 0 0 0 0 0 0 0 0
1384 1161 1034 753 770 452 67 217 374 426 450 438 189 49 4 30 6 0 0 0 1 5 7 27 12 12 6 15 6 0 0 0 0 0 0 0 0 0 0 0 0 0 0 0 0 0 0 0 0 0 0 0 0 0 0 0 0 0 0 0 0 0 0
1298 1384 1380 1021 596 321 64 190 411 426 430 284 275 84 111 136 28 6 3 2 1 1 0 2 20 31 32 59 34 43 45 28 12 3 0 0 0 0 0 0 0 0 0 0 0 0 0 0 0 0 0 0 0 0 0 0 0 0 0 0 0 0 0
1257 1343 1407 1058 662 713 508 159 104 447 519 415 270 229 152 179 120 181 166 170 150 120 108 142 122 101 82 65 42 60 57 58 44 46 32 1 1 0 0 0 0 0 0 0 0 0 0 0 0 0 0 0 0 0 0 0 0 0 0 0 0 0 0
981 1196 1248 1093 1096 726 953 196 23 108 525 716 559 535 444 324 319 301 454 345 394 418 392 347 332 363 458 355 195 149 133 140 172 84 108 78 8 7 3 0 3 0 0 0 0 0 0 0 0 0 0 0 0 0 0 0 0 0 0 0 0 0 0
952 1034 1091 1138 1214 1088 1210 989 720 32 91 545 662 784 736 679 560 568 545 424 480 500 468 521 538 525 543 540 442 418 462 405 294 185 130 48 4 2 10 4 0 0 0 0 0 0 0 0 0 0 0 0 0 0 0 0 0 0 0 0 0 0 0
747 824 938 968 994 885 1016 1106 984 658 423 231 656 768 827 836 913 789 710 651 640 671 692 699 685 597 568 634 616 630 771 462 342 363 454 391 192 83 43 5 3 0 0 0 0 0 0 0 0 0 0 0 0 0 0 0 0 0 0 0 0 0 0
1008 932 868 727 594 774 761 886 927 742 728 578 720 690 778 872 1000 927 892 944 846 891 916 825 720 635 538 635 648 642 641 643 516 485 584 468 421 364 202 80 58 43 24 0 0 0 0 0 0 0 0 3 0 1 0 0 0 0 0 0 0 0 0
882 910 906 968 870 637 724 812 990 922 1111 1120 950 758 865 901 1132 1032 1099 1089 1024 995 970 812 784 874 888 859 829 904 1028 972 896 912 967 923 802 672 557 411 192 85 24 0 0 0 0 0 0 0 0 0 0 0 0 0 0 0 1 0 0 0 0
871 879 859 850 859 698 732 1159 1373 1418 1372 1214 1207 1007 914 956 1042 1021 915 934 1072 1214 1108 979 1122 502 570 815 999 790 948 884 828 957 969 955 892 700 562 559 423 64 3 0 0 0 0 0 0 0 0 0 0 0 0 0 0 0 0 0 1 0 0
869 994 790 834 880 842 781 940 1269 1149 1126 1048 1072 1063 1037 938 1029 1028 943 1030 1202 1327 1204 928 0 0 0 13 740 1195 1167 1243 1220 1130 1108 1124 1078 969 1007 777 765 295 90 0 0 0 0 0 0 0 0 0 0 18 0 0 0 0 0 0 0 0 0
781 774 847 890 830 856 810 843 995 1156 1116 1130 1116 1209 1183 1114 1078 1165 1191 1092 1117 1200 1238 630 16 4 14 9 4 1069 1203 1266 1392 1383 1336 1259 1088 980 878 905 785 516 267 186 91 0 0 0 0 0 0 0 4 27 21 8 0 0 0 0 0 3 0
940 986 988 914 898 937 994 824 1046 1166 1101 696 644 635 382 830 657 798 918 863 675 733 1072 618 23 14 28 392 423 570 1413 1346 1124 1134 1057 1030 927 798 811 798 941 720 251 234 283 271 249 116 0 60 74 0 0 0 33 25 30 0 0 0 7 6 1
618 844 914 918 890 944 1062 1131 1200 1153 714 207 472 519 530 251 173 519 538 682 830 678 600 574 216 350 208 465 454 518 1174 767 527 400 375 345 445 306 352 312 325 351 293 139 135 226 318 276 0 0 0 0 0 0 0 0 0 2 0 0 0 0 0
2 83 518 938 999 993 1007 1098 1007 869 643 650 423 382 83 53 60 324 488 672 788 1047 667 372 353 416 468 523 446 372 680 370 142 104 164 383 370 469 517 495 353 272 232 295 228 203 30 267 0 0 0 0 0 0 0 0 1 4 3 5 1 3 0
0 0 0 102 450 615 743 734 721 645 489 471 417 291 341 323 289 116 244 585 721 879 472 502 481 551 570 418 466 791 350 154 50 73 86 204 182 264 313 451 358 294 320 209 11 76 217 61 0 0 0 4 0 0 0 0 2 2 0 2 0 0 0
0 0 0 0 0 24 211 319 360 324 270 264 357 288 261 338 299 311 321 506 426 620 623 573 648 567 587 371 368 498 178 61 140 115 138 137 123 119 92 100 344 265 226 51 206 244 197 0 0 0 7 5 0 0 0 0 0 0 0 0 0 0 2
0 0 0 0 0 15 147 250 286 140 161 126 102 91 94 50 24 8 9 55 122 66 485 248 583 619 528 521 496 450 161 123 207 120 78 78 34 0 0 0 0 145 22 0 26 166 180 60 0 5 0 0 0 0 0 0 0 0 0 0 0 0 0
0 0 0 2 14 46 133 162 146 143 79 48 54 14 0 0 0 0 0 18 1 127 167 2 73 226 527 531 402 751 127 187 220 139 52 9 0 0 0 0 0 0 0 0 0 0 0 0 0 1 10 4 0 0 0 0 0 0 0 0 0 0 0
0 0 0 0 5 60 71 36 59 14 8 0 0 0 0 0 0 0 0 0 27 63 98 115 0 0 13 350 409 416 201 145 289 216 68 0 0 0 0 0 0 0 0 0 0 0 0 0 0 1 0 0 0 0 0 0 0 0 0 0 0 0 0
0 0 0 4 18 4 7 20 47 12 2 0 0 0 0 0 0 0 0 0 17 270 363 150 0 0 0 0 156 82 266 154 294 188 79 0 0 0 0 0 0 0 0 0 0 0 0 0 0 0 0 0 0 0 0 0 0 0 0 0 0 0 0
0 0 0 0 6 42 34 8 41 71 7 10 12 2 4 1 0 0 1 7 109 110 0 198 36 0 0 0 52 233 212 234 100 73 32 16 1 0 0 0 0 0 0 0 0 0 0 0 0 0 0 0 0 0 0 0 0 0 0 0 0 0 0
0 0 0 0 1 15 43 78 37 30 43 138 279 354 247 116 8 51 44 49 125 119 3 0 0 0 0 0 0 0 0 62 0 153 48 34 0 0 0 0 0 0 0 0 0 0 0 0 0 0 0 0 0 0 0 0 0 0 0 0 0 0 0
0 0 1 2 3 15 26 66 162 98 67 58 37 54 6 3 6 28 64 17 9 3 0 0 0 0 0 0 0 53 90 17 1 79 43 6 0 0 0 0 0 0 0 0 0 0 0 0 0 0 0 0 0 0 0 0 0 0 0 0 0 0 0
Wind_Speed
20 22 22 21 20 nan nan nan nan 21 22 21 20 20 20 20 21 22 22 23 22 19 17 18 19 19 19 21 21 21 20 20 20 18 20 21 18 22 20 20 19 18 16 16 17 18 14 15 19 22 23 23 23 23 22 23 23 22 23 23 24 23 20
23 23 23 23 22 21 22 20 nan nan nan 23 23 24 24 25 25 25 23 24 23 20 18 18 19 19 19 20 21 21 22 22 21 22 21 21 19 21 22 20 19 19 18 17 17 17 14 17 22 21 23 24 25 24 23 25 25 25 25 26 26 26 25
23 23 23 24 22 22 23 22 nan nan nan 24 25 26 26 nan nan 25 nan 23 23 22 nan nan nan 20 19 21 21 21 22 22 23 23 23 22 21 21 19 22 20 20 19 20 18 18 17 19 19 22 22 22 24 nan nan 26 27 27 nan nan nan nan 27
24 24 24 24 23 23 24 nan nan nan 22 24 25 26 26 nan nan nan 23 23 nan nan nan nan nan nan 20 21 22 22 23 23 24 25 25 24 23 22 21 20 20 20 19 20 21 20 20 21 23 24 nan nan nan nan nan nan nan nan nan nan nan nan nan
23 23 25 26 26 27 27 nan nan nan 26 26 26 nan nan nan nan nan nan nan nan nan nan nan nan nan nan nan nan nan nan 23 25 26 25 26 24 24 22 21 21 21 21 20 21 20 19 22 21 23 nan nan nan nan nan nan nan nan nan nan nan nan nan
23 25 26 27 28 nan nan nan nan nan nan nan nan nan nan nan nan nan nan nan nan nan nan nan nan nan nan nan nan nan nan nan nan nan nan 25 25 nan 24 23 nan 23 23 23 22 20 21 21 21 22 nan nan nan nan nan nan nan nan nan nan nan nan nan
25 25 25 26 nan nan nan nan nan nan nan nan nan nan nan nan nan nan nan nan nan nan nan nan nan nan nan nan nan nan nan nan nan nan nan nan nan nan nan nan nan nan nan nan nan nan 20 20 20 21 23 nan nan nan nan nan nan nan nan nan nan nan nan
26 24 23 24 nan nan nan nan nan nan nan nan nan nan nan nan nan nan nan nan nan nan nan nan nan nan nan nan nan nan nan nan nan nan nan nan nan nan nan nan nan nan nan nan nan nan nan nan nan nan nan nan nan nan nan nan nan nan nan nan nan nan nan
24 21 20 nan nan nan nan nan nan nan nan nan nan nan nan nan nan nan nan nan nan nan nan nan nan nan nan nan nan nan nan nan nan nan nan nan nan nan nan nan nan nan nan nan nan nan nan nan nan nan nan nan nan nan nan nan nan nan nan nan nan nan nan
16 15 16 18 20 23 nan nan nan nan nan nan nan nan nan nan nan nan nan nan nan nan nan nan nan nan nan nan nan nan nan nan nan nan nan nan nan nan nan nan nan nan nan nan nan nan nan nan nan nan nan nan nan nan nan nan nan nan nan nan nan nan nan
12 14 16 17 18 19 22 nan nan nan nan nan nan nan nan nan nan nan nan nan nan nan nan nan nan nan nan nan nan nan nan nan nan nan nan nan nan nan nan nan nan nan nan nan nan nan nan nan nan nan nan nan nan nan nan nan nan nan nan nan nan nan nan
14 16 17 18 18 17 18 20 21 21 nan nan nan nan nan nan nan nan nan nan nan nan nan nan nan nan nan nan nan nan nan nan nan nan nan nan nan nan nan nan nan nan nan nan nan nan nan nan nan nan nan nan nan nan nan nan nan nan nan nan nan nan nan
13 14 16 nan nan 16 17 nan nan 18 20 nan nan nan nan nan nan nan nan nan nan nan nan nan nan nan nan nan nan nan nan nan nan nan nan nan nan nan nan nan nan nan nan nan nan nan nan nan nan nan nan nan nan nan nan nan nan nan nan nan nan nan nan
12 12 14 15 15 17 nan nan nan 15 17 19 nan nan nan nan nan nan nan nan nan nan nan nan nan nan nan nan nan nan nan nan nan nan nan nan nan nan nan nan nan nan nan nan nan nan nan nan nan nan nan nan nan nan nan nan nan nan nan nan nan nan nan
13 13 14 15 15 17 nan 15 15 14 16 18 20 nan nan nan nan nan nan nan nan nan nan nan nan nan nan nan nan nan nan nan nan nan nan nan nan nan nan nan nan nan nan nan nan nan nan nan nan nan nan nan nan nan nan nan nan nan nan nan nan nan nan
14 14 15 14 14 16 nan 16 16 15 15 18 19 nan 25 25 nan nan nan nan nan nan nan nan nan nan nan nan nan nan nan nan nan nan nan nan nan nan nan nan nan nan nan nan nan nan nan nan nan nan nan nan nan nan nan nan nan nan nan nan nan nan nan
15 15 14 13 13 15 17 16 16 14 14 16 18 21 24 26 26 24 23 22 23 22 23 23 23 24 nan nan nan nan nan nan nan nan nan nan nan nan nan nan nan nan nan nan nan nan nan nan nan nan nan nan nan nan nan nan nan nan nan nan nan nan nan
14 14 13 13 13 14 16 16 nan 15 16 16 18 20 22 25 26 25 23 22 22 22 22 23 25 25 25 24 24 23 22 23 23 nan 21 nan nan nan nan nan nan nan nan nan nan nan nan nan nan nan nan nan nan nan nan nan nan nan nan nan nan nan nan
14 15 15 14 13 14 15 15 17 nan nan 18 19 20 21 22 23 23 21 21 22 24 25 26 26 25 25 25 24 24 23 24 24 23 24 nan nan nan nan nan nan nan nan nan nan nan nan nan nan nan nan nan nan nan nan nan nan nan nan nan nan nan nan
16 16 17 17 16 15 15 16 18 20 21 21 22 21 20 21 23 24 25 26 27 28 29 27 25 25 25 24 23 23 25 24 24 24 24 24 23 nan nan nan nan nan nan nan nan nan nan nan nan nan nan nan nan nan nan nan nan nan nan nan nan nan nan
17 17 18 19 19 19 18 18 18 21 22 23 23 22 22 23 24 25 28 30 30 31 31 28 26 25 25 25 24 23 24 25 25 25 24 22 21 20 18 nan nan nan nan nan nan nan nan nan nan nan nan nan nan nan nan nan nan nan nan nan nan nan nan
23 23 22 22 23 24 21 20 21 23 25 25 25 25 25 25 27 28 30 31 33 34 32 31 29 28 28 29 27 25 25 25 25 24 24 23 23 22 21 22 23 nan nan nan nan nan nan nan nan nan nan nan nan nan nan nan nan nan nan nan nan nan nan
28 28 27 27 27 27 27 27 27 28 28 29 30 29 29 29 29 30 31 32 33 35 34 32 38 36 29 28 30 29 30 28 28 28 28 27 27 27 27 28 31 nan nan nan nan nan nan nan nan nan nan nan nan nan nan nan nan nan nan nan nan nan nan
34 33 33 33 33 31 32 33 32 32 33 33 34 34 34 34 34 34 34 35 36 35 34 36 nan nan nan nan 28 31 31 31 31 31 31 31 31 32 33 34 36 42 nan nan nan nan nan nan nan nan nan nan nan nan nan nan nan nan nan nan nan nan nan
38 39 38 38 37 36 36 36 36 36 37 37 38 39 39 41 40 38 38 36 35 35 36 45 nan nan nan nan nan 31 33 34 35 35 36 36 37 38 39 40 40 42 38 37 nan nan nan nan nan nan nan nan nan nan nan nan nan nan nan nan nan nan nan
43 43 41 41 41 40 40 40 40 38 38 41 40 39 39 42 41 39 39 38 36 34 35 45 nan nan nan 32 29 29 36 39 38 39 40 41 41 41 41 41 40 39 41 45 36 35 38 40 nan nan nan nan nan nan nan nan nan nan nan nan nan nan nan
47 47 46 44 42 41 40 39 38 39 43 42 43 44 43 39 37 37 39 38 37 37 38 48 45 42 39 36 35 32 40 42 42 43 44 44 42 40 39 37 37 38 41 40 36 37 38 41 nan nan nan nan nan nan nan nan nan nan nan nan nan nan nan
nan nan 48 45 42 38 37 38 39 40 38 39 41 43 nan nan nan 39 38 36 36 38 47 48 44 41 42 40 41 38 43 45 45 47 47 46 43 41 39 37 36 36 38 37 37 39 nan 42 nan nan nan nan nan nan nan nan nan nan nan nan nan nan nan
nan nan nan 43 40 39 40 41 41 42 40 41 43 43 43 44 44 40 35 31 31 36 44 45 42 42 42 44 46 43 47 48 nan nan nan 46 43 42 41 39 37 38 38 39 nan nan 39 nan nan nan nan nan nan nan nan nan nan nan nan nan nan nan nan
nan nan nan nan nan nan 41 41 41 42 42 43 43 44 46 47 45 42 37 34 34 37 43 44 45 45 46 48 46 46 48 nan 49 48 47 45 44 45 nan 42 39 39 40 nan 46 45 45 nan nan nan nan nan nan nan nan nan nan nan nan nan nan nan nan
nan nan nan nan nan nan 42 42 42 43 45 47 47 nan nan nan nan nan nan nan 47 nan 50 52 51 52 49 47 42 45 46 45 47 47 nan nan nan nan nan nan nan 43 nan nan nan 48 47 nan nan nan nan nan nan nan nan nan nan nan nan nan nan nan nan
nan nan nan nan nan nan 42 43 45 45 nan nan nan nan nan nan nan nan nan nan nan 50 53 nan nan 52 48 45 42 43 43 44 44 44 nan nan nan nan nan nan nan nan nan nan nan nan nan nan nan nan nan nan nan nan nan nan nan nan nan nan nan nan nan
nan nan nan nan nan nan nan nan nan nan nan nan nan nan nan nan nan nan nan nan nan nan nan 51 nan nan nan 44 39 41 42 44 45 47 nan nan nan nan nan nan nan nan nan nan nan nan nan nan nan nan nan nan nan nan nan nan nan nan nan nan nan nan nan
nan nan nan nan nan nan nan nan nan nan nan nan nan nan nan nan nan nan nan nan nan 48 49 49 nan nan nan nan 43 nan 45 47 50 52 nan nan nan nan nan nan nan nan nan nan nan nan nan nan nan nan nan nan nan nan nan nan nan nan nan nan nan nan nan
nan nan nan nan nan nan nan nan nan nan nan nan nan nan nan nan nan nan nan nan 53 53 nan 52 nan nan nan nan nan 48 48 52 53 nan nan nan nan nan nan nan nan nan nan nan nan nan nan nan nan nan nan nan nan nan nan nan nan nan nan nan nan nan nan
nan nan nan nan nan nan nan nan nan nan nan 53 54 56 57 58 nan nan nan nan 59 58 nan nan nan nan nan nan nan nan nan nan nan 50 nan nan nan nan nan nan nan nan nan nan nan nan nan nan nan nan nan nan nan nan nan nan nan nan nan nan nan nan nan
nan nan nan nan nan nan nan nan 52 nan nan nan nan nan nan nan nan nan nan nan nan nan nan nan nan nan nan nan nan nan nan nan nan nan nan nan nan nan nan nan nan nan nan nan nan nan nan nan nan nan nan nan nan nan nan nan nan nan nan nan nan nan nan
Wind_Direction
277 279 281 281 284 nan nan nan nan 277 274 273 274 271 270 274 283 291 291 286 281 279 277 274 273 270 272 271 268 270 272 271 275 271 272 273 271 275 276 275 276 266 266 268 269 283 275 279 280 273 269 268 267 265 265 268 264 260 262 258 257 261 264
279 282 283 286 290 291 292 290 nan nan nan 270 273 275 272 275 283 289 290 284 277 273 274 276 272 271 270 272 275 274 272 273 272 271 274 276 278 276 283 282 279 274 274 269 264 267 264 269 274 274 272 273 270 267 269 266 267 267 263 260 262 266 270
279 283 286 291 294 295 291 288 nan nan nan 276 274 272 274 nan nan 284 nan 279 272 269 nan nan nan 275 273 276 275 276 277 276 275 274 272 274 273 273 275 275 276 275 269 266 267 267 261 251 265 273 273 273 269 nan nan 270 270 268 nan nan nan nan 269
283 286 290 294 295 294 290 nan nan nan 279 277 275 274 274 nan nan nan 279 274 nan nan nan nan nan nan 276 278 282 282 282 283 283 281 280 277 276 276 278 278 277 275 267 266 265 265 260 264 264 265 nan nan nan nan nan nan nan nan nan nan nan nan nan
285 288 293 295 296 292 288 nan nan nan 282 279 276 nan nan nan nan nan nan nan nan nan nan nan nan nan nan nan nan nan nan 279 279 280 278 277 275 277 276 273 267 265 268 268 268 265 264 264 264 267 nan nan nan nan nan nan nan nan nan nan nan nan nan
283 287 291 293 292 nan nan nan nan nan nan nan nan nan nan nan nan nan nan nan nan nan nan nan nan nan nan nan nan nan nan nan nan nan nan 269 270 nan 272 270 nan 267 265 261 261 264 265 265 264 268 nan nan nan nan nan nan nan nan nan nan nan nan nan
282 285 286 288 nan nan nan nan nan nan nan nan nan nan nan nan nan nan nan nan nan nan nan nan nan nan nan nan nan nan nan nan nan nan nan nan nan nan nan nan nan nan nan nan nan nan 265 268 268 267 268 nan nan nan nan nan nan nan nan nan nan nan nan
280 283 282 283 nan nan nan nan nan nan nan nan nan nan nan nan nan nan nan nan nan nan nan nan nan nan nan nan nan nan nan nan nan nan nan nan nan nan nan nan nan nan nan nan nan nan nan nan nan nan nan nan nan nan nan nan nan nan nan nan nan nan nan
276 279 280 nan nan nan nan nan nan nan nan nan nan nan nan nan nan nan nan nan nan nan nan nan nan nan nan nan nan nan nan nan nan nan nan nan nan nan nan nan nan nan nan nan nan nan nan nan nan nan nan nan nan nan nan nan nan nan nan nan nan nan nan
275 280 280 278 276 273 nan nan nan nan nan nan nan nan nan nan nan nan nan nan nan nan nan nan nan nan nan nan nan nan nan nan nan nan nan nan nan nan nan nan nan nan nan nan nan nan nan nan nan nan nan nan nan nan nan nan nan nan nan nan nan nan nan
283 285 282 280 276 276 278 nan nan nan nan nan nan nan nan nan nan nan nan nan nan nan nan nan nan nan nan nan nan nan nan nan nan nan nan nan nan nan nan nan nan nan nan nan nan nan nan nan nan nan nan nan nan nan nan nan nan nan nan nan nan nan nan
287 284 280 279 278 280 284 282 283 285 nan nan nan nan nan nan nan nan nan nan nan nan nan nan nan nan nan nan nan nan nan nan nan nan nan nan nan nan nan nan nan nan nan nan nan nan nan nan nan nan nan nan nan nan nan nan nan nan nan nan nan nan nan
280 277 277 nan nan 281 285 nan nan 290 292 nan nan nan nan nan nan nan nan nan nan nan nan nan nan nan nan nan nan nan nan nan nan nan nan nan nan nan nan nan nan nan nan nan nan nan nan nan nan nan nan nan nan nan nan nan nan nan nan nan nan nan nan
272 271 279 280 282 286 nan nan nan 290 291 292 nan nan nan nan nan nan nan nan nan nan nan nan nan nan nan nan nan nan nan nan nan nan nan nan nan nan nan nan nan nan nan nan nan nan nan nan nan nan nan nan nan nan nan nan nan nan nan nan nan nan nan
260 265 273 277 280 286 nan 288 288 290 293 292 296 nan nan nan nan nan nan nan nan nan nan nan nan nan nan nan nan nan nan nan nan nan nan nan nan nan nan nan nan nan nan nan nan nan nan nan nan nan nan nan nan nan nan nan nan nan nan nan nan nan nan
253 261 267 270 278 283 nan 285 287 291 293 294 297 nan 296 297 nan nan nan nan nan nan nan nan nan nan nan nan nan nan nan nan nan nan nan nan nan nan nan nan nan nan nan nan nan nan nan nan nan nan nan nan nan nan nan nan nan nan nan nan nan nan nan
252 255 260 266 277 280 282 283 285 288 289 293 299 299 301 301 299 297 293 285 278 276 277 276 278 276 nan nan nan nan nan nan nan nan nan nan nan nan nan nan nan nan nan nan nan nan nan nan nan nan nan nan nan nan nan nan nan nan nan nan nan nan nan
254 254 257 261 275 280 279 281 nan 285 285 292 300 301 303 302 301 301 296 292 283 279 279 280 279 277 274 272 269 267 266 264 260 nan 254 nan nan nan nan nan nan nan nan nan nan nan nan nan nan nan nan nan nan nan nan nan nan nan nan nan nan nan nan
251 254 255 258 271 280 279 281 281 nan nan 295 299 301 305 303 302 300 296 292 288 284 283 283 283 279 276 272 267 263 261 260 259 257 260 nan nan nan nan nan nan nan nan nan nan nan nan nan nan nan nan nan nan nan nan nan nan nan nan nan nan nan nan
252 257 260 261 265 275 281 283 286 286 288 294 297 300 300 300 295 294 294 293 292 289 286 285 283 281 277 273 267 263 263 261 259 261 267 273 275 nan nan nan nan nan nan nan nan nan nan nan nan nan nan nan nan nan nan nan nan nan nan nan nan nan nan
260 264 268 272 273 270 274 279 282 284 286 291 293 296 296 295 290 287 286 287 287 285 282 280 279 277 274 274 270 264 260 260 261 263 266 269 270 270 272 nan nan nan nan nan nan nan nan nan nan nan nan nan nan nan nan nan nan nan nan nan nan nan nan
261 267 272 275 276 274 274 278 281 283 283 284 283 285 285 285 284 284 283 282 283 282 281 277 273 271 271 272 271 266 260 259 261 262 265 268 270 270 271 275 280 nan nan nan nan nan nan nan nan nan nan nan nan nan nan nan nan nan nan nan nan nan nan
270 270 269 271 274 277 279 281 279 280 281 281 280 279 279 278 277 277 278 278 276 275 274 271 265 261 254 265 269 264 263 260 260 261 261 262 264 267 269 272 277 nan nan nan nan nan nan nan nan nan nan nan nan nan nan nan nan nan nan nan nan nan nan
270 270 271 271 271 274 276 277 278 279 279 280 280 279 277 276 274 271 270 269 269 266 264 260 nan nan nan nan 255 264 263 262 262 262 263 264 265 268 271 273 274 281 nan nan nan nan nan nan nan nan nan nan nan nan nan nan nan nan nan nan nan nan nan
269 269 270 271 272 273 274 276 276 276 276 278 279 277 275 271 268 266 263 260 259 259 256 257 nan nan nan nan nan 257 263 262 263 264 266 267 268 269 270 272 273 276 280 282 nan nan nan nan nan nan nan nan nan nan nan nan nan nan nan nan nan nan nan
264 266 267 269 271 271 272 273 273 273 270 264 262 262 264 268 268 266 267 266 263 257 254 258 nan nan nan 260 261 257 265 265 266 267 266 266 266 268 271 274 276 277 275 278 280 279 279 277 nan nan nan nan nan nan nan nan nan nan nan nan nan nan nan
265 266 267 269 271 272 272 270 270 272 271 273 273 272 272 269 266 267 266 263 260 259 259 258 258 259 262 264 267 263 264 267 267 266 266 266 267 267 268 270 272 275 276 278 277 276 277 278 nan nan nan nan nan nan nan nan nan nan nan nan nan nan nan
nan nan 267 268 269 270 267 267 272 275 276 275 275 274 nan nan nan 270 270 266 261 257 254 257 259 262 264 267 270 266 267 267 268 267 266 266 266 266 267 268 270 270 274 276 274 274 nan 281 nan nan nan nan nan nan nan nan nan nan nan nan nan nan nan
nan nan nan 265 266 266 266 269 275 278 278 275 275 277 277 274 271 266 263 265 262 259 255 257 260 264 268 271 273 272 272 271 nan nan nan 266 266 267 268 269 272 273 273 274 nan nan 276 nan nan nan nan nan nan nan nan nan nan nan nan nan nan nan nan
nan nan nan nan nan nan 268 272 274 276 276 275 276 277 278 276 271 266 264 262 263 262 262 262 264 269 272 274 273 272 272 nan 269 268 265 265 266 264 nan 263 267 271 274 nan 272 274 274 nan nan nan nan nan nan nan nan nan nan nan nan nan nan nan nan
nan nan nan nan nan nan 268 270 272 273 275 276 278 nan nan nan nan nan nan nan 254 nan 260 262 265 270 272 277 270 269 271 269 267 266 nan nan nan nan nan nan nan 270 nan nan nan 274 276 nan nan nan nan nan nan nan nan nan nan nan nan nan nan nan nan
nan nan nan nan nan nan 268 270 271 272 nan nan nan nan nan nan nan nan nan nan nan 257 261 nan nan 269 271 273 267 267 267 266 266 267 nan nan nan nan nan nan nan nan nan nan nan nan nan nan nan nan nan nan nan nan nan nan nan nan nan nan nan nan nan
nan nan nan nan nan nan nan nan nan nan nan nan nan nan nan nan nan nan nan nan nan nan nan 263 nan nan nan 269 265 258 264 265 268 271 nan nan nan nan nan nan nan nan nan nan nan nan nan nan nan nan nan nan nan nan nan nan nan nan nan nan nan nan nan
nan nan nan nan nan nan nan nan nan nan nan nan nan nan nan nan nan nan nan nan nan 259 257 258 nan nan nan nan 265 nan 264 266 270 274 nan nan nan nan nan nan nan nan nan nan nan nan nan nan nan nan nan nan nan nan nan nan nan nan nan nan nan nan nan
nan nan nan nan nan nan nan nan nan nan nan nan nan nan nan nan nan nan nan nan 262 262 nan 249 nan nan nan nan nan 258 259 269 269 nan nan nan nan nan nan nan nan nan nan nan nan nan nan nan nan nan nan nan nan nan nan nan nan nan nan nan nan nan nan
nan nan nan nan nan nan nan nan nan nan nan 270 269 268 267 264 nan nan nan nan 264 264 nan nan nan nan nan nan nan nan nan nan nan 269 nan nan nan nan nan nan nan nan nan nan nan nan nan nan nan nan nan nan nan nan nan nan nan nan nan nan nan nan nan
nan nan nan nan nan nan nan nan 274 nan nan nan nan nan nan nan nan nan nan nan nan nan nan nan nan nan nan nan nan nan nan nan nan nan nan nan nan nan nan nan nan nan nan nan nan nan nan nan nan nan nan nan nan nan nan nan nan nan nan nan nan nan nan